This is the latest recevied weather packets stored in our database for station/object NU3S-7. If no packets are shown the sender has not sent any weather packets the latest 10 day(s).
| Time | Temp. | Humidity | Pressure | Rain* | Wind** | Luminosity | Snow |
|---|---|---|---|---|---|---|---|
| 1777686903 | 5° C | 100% | 1014.9 hPa | 2.79 mm | - | - | - |
| 1777686683 | 5° C | 100% | 1014.9 hPa | 2.79 mm | - | - | - |
| 1777686082 | 5° C | 100% | 1014.7 hPa | 2.79 mm | - | - | - |
| 1777685704 | 5° C | 100% | 1014.6 hPa | 2.79 mm | - | - | - |
| 1777685482 | 5° C | 100% | 1014.6 hPa | 2.79 mm | - | - | - |
| 1777685103 | 5° C | 100% | 1014.6 hPa | 2.79 mm | - | - | - |
| 1777684882 | 5° C | 100% | 1014.6 hPa | 2.79 mm | - | - | - |
| 1777683078 | 5.56° C | 100% | 1013.8 hPa | 2.79 mm | - | - | - |
| 1777682704 | 6.11° C | 100% | 1013.6 hPa | 2.79 mm | - | - | - |
| 1777682478 | 6.11° C | 100% | 1013.6 hPa | 2.79 mm | - | - | - |
| 1777681877 | 6.11° C | 100% | 1013.2 hPa | 2.79 mm | - | - | - |
| 1777681277 | 6.67° C | 100% | 1013 hPa | 2.79 mm | - | - | - |
| 1777680076 | 6.67° C | 100% | 1012.5 hPa | 2.79 mm | - | - | - |
| 1777679476 | 6.67° C | 100% | 1012.3 hPa | 2.79 mm | - | - | - |
| 1777678872 | 7.22° C | 100% | 1012.2 hPa | 2.79 mm | - | - | - |
| 1777678272 | 7.22° C | 100% | 1011.9 hPa | 2.79 mm | - | - | - |
| 1777677671 | 7.22° C | 99% | 1011.6 hPa | 2.79 mm | - | - | - |
| 1777677070 | 6.67° C | 98% | 1011.7 hPa | 2.54 mm | - | - | - |
| 1777676469 | 10° C | 97% | 1011.4 hPa | 0.51 mm | - | - | - |
| 1777675869 | 10° C | 97% | 1011.1 hPa | 0.51 mm | - | - | - |
| 1777675269 | 10° C | 98% | 1011.1 hPa | 0.51 mm | - | - | - |
| 1777674669 | 9.44° C | 98% | 1011.2 hPa | 0.51 mm | - | - | - |
| 1777674069 | 9.44° C | 98% | 1011.2 hPa | 0.51 mm | - | - | - |
| 1777673467 | 9.44° C | 99% | 1011.3 hPa | 0.51 mm | - | - | - |
| 1777672867 | 9.44° C | 99% | 1011.3 hPa | 0.51 mm | - | - | - |
* Rain since midnight (hover to see other rain measurements)
** Current wind speed in m/s (hover to see current wind gust speed)